TimeICT,TemperatureF,Dew PointF,Humidity,Sea Level PressureIn,VisibilityMPH,Wind Direction,Wind SpeedMPH,Gust SpeedMPH,PrecipitationIn,Events,Conditions,WindDirDegrees,DateUTC
12:00 AM,78.8,75.2,89,29.89,5.6,Calm,Calm,-,N/A,,Mostly Cloudy,0,2012-12-02 17:00:00
12:30 AM,78.8,75.2,89,29.89,1.9,ESE,8.1,-,N/A,Rain,Rain,110,2012-12-02 17:30:00
1:00 AM,77,76,94,29.84,3,Calm,Calm,,,Rain,Light Rain,,2012-12-02 18:00:00
1:00 AM,77.0,73.4,89,29.86,3.1,NE,5.8,-,N/A,Rain,Light Rain,50,2012-12-02 18:00:00
1:30 AM,77.0,75.2,94,29.86,4.3,Calm,Calm,-,N/A,,Mostly Cloudy,0,2012-12-02 18:30:00
2:00 AM,77.0,75.2,94,29.86,4.3,East,2.3,-,N/A,,Mostly Cloudy,100,2012-12-02 19:00:00
3:00 AM,77.0,73.4,89,29.83,5.0,Variable,2.3,-,N/A,,Mostly Cloudy,0,2012-12-02 20:00:00
4:30 AM,75.2,73.4,94,29.83,5.0,Calm,Calm,-,N/A,,Mostly Cloudy,0,2012-12-02 21:30:00
5:00 AM,77.0,75.2,94,29.83,5.0,Calm,Calm,-,N/A,,Mostly Cloudy,0,2012-12-02 22:00:00
5:30 AM,75.2,73.4,94,29.83,5.0,Calm,Calm,-,N/A,,Mostly Cloudy,0,2012-12-02 22:30:00
6:00 AM,75.2,73.4,94,29.83,5.0,Calm,Calm,-,N/A,,Mostly Cloudy,0,2012-12-02 23:00:00
6:30 AM,75.2,73.4,94,29.86,5.0,Calm,Calm,-,N/A,,Mostly Cloudy,0,2012-12-02 23:30:00
7:00 AM,76,75,95,29.82,6,Calm,Calm,,,,Mist,,2012-12-03 00:00:00
7:00 AM,75.2,73.4,94,29.86,5.0,Calm,Calm,-,N/A,,Mostly Cloudy,0,2012-12-03 00:00:00
7:30 AM,78.8,75.2,89,29.86,5.6,Variable,2.3,-,N/A,,Mostly Cloudy,0,2012-12-03 00:30:00
8:00 AM,82.4,75.2,79,29.89,5.6,Variable,2.3,-,N/A,,Mostly Cloudy,0,2012-12-03 01:00:00
8:30 AM,82.4,75.2,79,29.89,5.6,ENE,3.5,-,N/A,,Mostly Cloudy,60,2012-12-03 01:30:00
9:00 AM,84.2,75.2,74,29.89,5.6,ENE,5.8,-,N/A,,Mostly Cloudy,60,2012-12-03 02:00:00
9:30 AM,84.2,75.2,74,29.89,5.6,ENE,6.9,-,N/A,,Mostly Cloudy,70,2012-12-03 02:30:00
10:00 AM,84.2,73.4,70,29.89,5.6,East,9.2,-,N/A,,Mostly Cloudy,80,2012-12-03 03:00:00
10:30 AM,86.0,73.4,66,29.89,5.6,East,9.2,-,N/A,,Mostly Cloudy,90,2012-12-03 03:30:00
11:00 AM,86.0,71.6,62,29.86,5.6,East,9.2,-,N/A,,Mostly Cloudy,100,2012-12-03 04:00:00
11:30 AM,86.0,71.6,62,29.86,5.6,East,9.2,-,N/A,,Mostly Cloudy,100,2012-12-03 04:30:00
12:00 PM,87.8,73.4,62,29.86,5.6,East,9.2,-,N/A,,Mostly Cloudy,90,2012-12-03 05:00:00
12:30 PM,87.8,73.4,62,29.83,5.6,East,10.4,-,N/A,,Mostly Cloudy,100,2012-12-03 05:30:00
1:00 PM,88,74,56,29.81,6,East,8.1,,,,Scattered Clouds,100,2012-12-03 06:00:00
1:00 PM,87.8,71.6,58,29.83,5.6,East,10.4,-,N/A,,Mostly Cloudy,100,2012-12-03 06:00:00
1:30 PM,87.8,71.6,58,29.80,5.6,East,11.5,-,N/A,,Mostly Cloudy,90,2012-12-03 06:30:00
2:00 PM,89.6,71.6,55,29.77,5.6,East,13.8,-,N/A,,Mostly Cloudy,90,2012-12-03 07:00:00
2:30 PM,89.6,71.6,55,29.77,6.2,East,9.2,-,N/A,,Mostly Cloudy,90,2012-12-03 07:30:00
3:00 PM,86.0,75.2,70,29.77,6.2,NW,6.9,-,N/A,,Mostly Cloudy,320,2012-12-03 08:00:00
3:30 PM,86.0,75.2,70,29.77,6.2,NW,6.9,-,N/A,,Mostly Cloudy,320,2012-12-03 08:30:00
4:00 PM,86.0,75.2,70,29.77,6.2,WNW,8.1,-,N/A,,Mostly Cloudy,300,2012-12-03 09:00:00
4:30 PM,86.0,73.4,66,29.77,6.2,NW,9.2,-,N/A,,Mostly Cloudy,310,2012-12-03 09:30:00
5:00 PM,86.0,73.4,66,29.77,6.2,WNW,9.2,-,N/A,,Mostly Cloudy,290,2012-12-03 10:00:00
5:30 PM,84.2,73.4,70,29.80,6.2,WNW,8.1,-,N/A,,Mostly Cloudy,290,2012-12-03 10:30:00
6:00 PM,84.2,73.4,70,29.80,5.6,WNW,6.9,-,N/A,,Mostly Cloudy,300,2012-12-03 11:00:00
6:30 PM,82.4,73.4,74,29.80,5.6,NW,5.8,-,N/A,,Mostly Cloudy,310,2012-12-03 11:30:00
7:00 PM,84,76,70,29.79,6,WNW,3.5,,,,Scattered Clouds,300,2012-12-03 12:00:00
7:00 PM,80.6,75.2,84,29.80,5.6,NW,3.5,-,N/A,,Mostly Cloudy,310,2012-12-03 12:00:00
7:30 PM,82.4,75.2,79,29.83,5.6,WNW,5.8,-,N/A,,Mostly Cloudy,290,2012-12-03 12:30:00
8:00 PM,82.4,73.4,74,29.83,5.6,NW,5.8,-,N/A,,Mostly Cloudy,310,2012-12-03 13:00:00
8:30 PM,82.4,73.4,74,29.86,5.6,WNW,4.6,-,N/A,,Mostly Cloudy,300,2012-12-03 13:30:00
9:00 PM,82.4,73.4,74,29.86,5.6,NW,5.8,-,N/A,,Mostly Cloudy,320,2012-12-03 14:00:00
9:30 PM,82.4,73.4,74,29.89,5.6,Calm,Calm,-,N/A,,Mostly Cloudy,0,2012-12-03 14:30:00
10:00 PM,80.6,75.2,84,29.89,5.6,Calm,Calm,-,N/A,,Mostly Cloudy,0,2012-12-03 15:00:00
10:30 PM,78.8,75.2,89,29.89,5.6,Calm,Calm,-,N/A,,Mostly Cloudy,0,2012-12-03 15:30:00
11:00 PM,78.8,75.2,89,29.89,5.6,Calm,Calm,-,N/A,,Mostly Cloudy,0,2012-12-03 16:00:00
11:30 PM,80.6,73.4,79,29.89,5.6,ENE,4.6,-,N/A,,Mostly Cloudy,60,2012-12-03 16:30:00